Home   Weather   Guilin   Past weeks

Flag for China Past Weather in Guilin, Guangxi, China — Yesterday and Last 2 Weeks

75 °F

Mostly cloudy.

Feels Like: 77 °F
Forecast: 56 / 67 °F
Wind: 8 mph from Northeast

Location: Guilin Airport

Current Time: Oct 28, 2016 at 4:30:29 PM

Latest Report: Oct 28, 2016 at 3:00 PM

Visibility: N/A

Pressure: 30.01 "Hg

Humidity: 69%

Dew Point: 64 °F

Location of GuilinLocation

Past Weather in Guilin — Graph


Guilin Temperature Yesterday

Maximum temperature yesterday: 90 °F (at 3:00 PM)
Minimum temperature yesterday: 72 °F (at 2:00 AM)
Average temperature yesterday: 78 °F

High & Low Weather Summary for the Past Weeks

High90 °F (Oct 22, 3:00 PM)100% (Oct 19, 5:00 AM)30.09 "Hg (Oct 19, 5:00 AM)
Low64 °F (Oct 15, 2:00 AM)46% (Oct 15, 3:00 PM)29.62 "Hg (Oct 21, 2:00 PM)
Average74 °F79%29.91 "Hg
* Reported Oct 13 3:00 PM — Oct 28 3:00 PM, Guilin, Weather by CustomWeather, © 2016

Note: Actual official high and low records may vary slightly from our data, if they occured in-between our weather recording intervals... More about our weather records


Guilin Weather History for the Previous 24 Hours

Scroll right to see more
Time TempWeatherWind HumidityBarometerVisibility
3:00 PM
Fri, Oct 28
75 °FMostly cloudy.8 mph69%30.01 "HgN/A
2:00 PM77 °FMostly cloudy.8 mph69%30.01 "Hg4 mi
1:00 PM75 °FMostly cloudy.13 mph69%30.04 "Hg4 mi
12:00 PM75 °FMore clouds than sun.17 mph74%30.07 "Hg4 mi
11:00 AM77 °FBroken clouds.8 mph83%30.09 "Hg4 mi
10:00 AM75 °FBroken clouds.1 mph89%30.09 "Hg4 mi
9:00 AM73 °FPartly sunny.1 mph94%30.07 "Hg4 mi
8:00 AM70 °FPartly sunny.No wind100%30.04 "Hg4 mi
7:00 AM70 °FPartly sunny.1 mph94%30.04 "Hg4 mi
6:00 AM68 °FClear.3 mph100%30.01 "Hg4 mi
5:00 AM68 °FClear.1 mph100%29.98 "Hg4 mi
4:00 AM70 °FClear.3 mph94%29.98 "Hg4 mi
3:00 AM70 °FClear.1 mph94%29.98 "Hg5 mi
2:00 AM70 °FClear.1 mph94%29.98 "Hg5 mi
1:00 AM70 °FClear.3 mph100%29.98 "Hg10 mi
12:00 AM72 °FClear.3 mph94%29.98 "Hg10 mi
11:00 PM
Thu, Oct 27
72 °FClear.3 mph94%29.98 "Hg10 mi
10:00 PM73 °FClear.1 mph89%29.98 "Hg10 mi
9:00 PM75 °FClear.1 mph83%29.98 "Hg10 mi
8:00 PM75 °FClear.1 mph89%29.95 "Hg10 mi
7:00 PM79 °FClear.3 mph79%29.92 "Hg10 mi
6:00 PM82 °FSunny.3 mph70%29.92 "Hg10 mi
5:00 PM88 °FPassing clouds.8 mph52%29.92 "HgN/A
4:00 PM90 °FPassing clouds.8 mph52%29.92 "HgN/A
Weather by CustomWeather, © 2016

See weather overviewHow to use our weather pages